Flag for U.S.A. Weather past 2 weeks in Portland, Maine, U.S.A.

Now
74 °F

Partly sunny.


Feels Like: 77 °F
Forecast: 60 / 74 °F
Wind: 13 mph from South

Location: Portland - Portland International Jetport

Current Time: Aug 29, 2015 at 3:18:36 PM

Latest Report: Aug 29, 2015 at 2:51 PM


Visibility: 10 mi

Pressure: 30.11 "Hg

Humidity: 56%

Dew point: 57 °F

Location of PortlandLocation

Historic Weather in Portland — Graph

°F

Portland temperature yesterday

Maximum temperature yesterday: 77 °F (at 12:51 PM)
Minimum temperature yesterday: 55 °F (at 5:51 AM)
Average temperature yesterday: 66 °F

Past Weeks' High & Low Weather Summary

 TemperatureHumidityPressure
High88 °F (Aug 17, 12:51 PM)100% (Aug 16, 1:51 AM)30.18 "Hg (Aug 16, 1:51 AM)
Low55 °F (Aug 28, 5:51 AM)46% (Aug 27, 12:51 PM)29.85 "Hg (Aug 26, 4:51 PM)
Average71 °F85%30.02 "Hg
* Reported Aug 14 1:51 PM — Aug 29 1:51 PM, Portland, Weather by CustomWeather, © 2015

Note: Actual official high and low records may vary slightly from our data, if they occured in-between our weather recording intervals... More about our weather records

Advertising

Portland weather history for previous 24 hours

 ConditionsComfort  
Time TempWeatherWind HumidityBarometerVisibility
1:51 PM
Sat, Aug 29
74 °FPartly sunny.10 mph57%30.12 "Hg10 mi
12:51 PM74 °FBroken clouds.8 mph56%30.14 "Hg10 mi
11:51 AM74 °FPartly sunny.10 mph57%30.16 "Hg10 mi
10:51 AM74 °FPartly sunny.6 mph60%30.17 "Hg10 mi
9:51 AM71 °FPartly sunny.No wind66%30.18 "Hg10 mi
8:51 AM67 °FPartly sunny.3 mph79%30.17 "Hg10 mi
7:51 AM61 °FScattered clouds.No wind87%30.18 "Hg10 mi
6:51 AM57 °FPassing clouds.No wind93%30.17 "Hg10 mi
5:51 AM56 °FPassing clouds.5 mph93%30.15 "Hg10 mi
4:51 AM57 °FClear.3 mph93%30.14 "Hg10 mi
3:51 AM58 °FClear.No wind97%30.14 "Hg10 mi
2:51 AM57 °FClear.3 mph96%30.14 "Hg10 mi
1:51 AM58 °FClear.No wind97%30.14 "Hg10 mi
12:51 AM60 °FClear.3 mph93%30.14 "Hg10 mi
11:51 PM
Fri, Aug 28
60 °FPassing clouds.3 mph93%30.14 "Hg10 mi
10:51 PM63 °FPassing clouds.No wind84%30.14 "Hg10 mi
9:51 PM63 °FPassing clouds.No wind84%30.14 "Hg10 mi
8:51 PM65 °FPassing clouds.3 mph78%30.13 "Hg10 mi
7:51 PM67 °FPassing clouds.6 mph73%30.11 "Hg10 mi
6:51 PM69 °FPassing clouds.7 mph68%30.09 "Hg10 mi
5:51 PM71 °FScattered clouds.14 mph61%30.09 "Hg10 mi
4:51 PM74 °FScattered clouds.12 mph57%30.09 "Hg10 mi
3:51 PM75 °FPassing clouds.9 mph60%30.09 "Hg10 mi
Weather by CustomWeather, © 2015

See weather overviewHow to use our weather pages